EW7633 Weather Reports


time (UTC)temp
F
wind
direction
speed
knots
gust
knots
rain 1hr
in
rain 24hr
in
rain mn
in
humidity
%
barometer
mb
20260504174533 80 322 6.1 12.2 0.00 0.00 0.00 24 1002.9
20260504173032 80 279 5.2 17.4 0.00 0.00 0.00 27 1002.9
20260504171528 79 320 3.5 12.2 0.00 0.00 0.00 26 1003.3
20260504081505 57 192 0.9 1.7 0.00 0.00 0.00 50 1004.8
20260504044534 59 163 0.0 1.7 0.00 0.00 0.00 49 1008.1
20260504043037 59 163 0.0 2.6 0.00 0.00 0.00 50 1008.3
20260504041522 59 209 0.0 1.7 0.00 0.00 0.00 49 1008.4
20260504040023 59 273 0.0 1.7 0.00 0.00 0.00 50 1008.6
20260504034520 59 294 0.0 1.7 0.00 0.00 0.00 52 1008.9
20260504033018 60 294 0.0 0.9 0.00 0.00 0.00 50 1009.0
20260504031519 60 264 0.9 1.7 0.00 0.00 0.00 50 1008.9
20260504030017 61 5 0.0 0.9 0.00 0.00 0.00 50 1009.0
20260504024517 62 42 0.0 0.0 0.00 0.00 0.00 50 1008.9
20260504023016 63 42 0.0 1.7 0.00 0.00 0.00 48 1009.0
20260504021515 64 42 0.0 0.0 0.00 0.00 0.00 47 1009.2
20260504020014 67 42 0.0 0.0 0.00 0.00 0.00 40 1009.2
20260504014514 68 42 0.0 1.7 0.00 0.00 0.00 36 1009.3
20260504013018 68 29 0.9 2.6 0.00 0.00 0.00 36 1009.2
20260504011512 69 71 0.0 1.7 0.00 0.00 0.00 35 1009.3
20260504010010 70 54 0.0 1.7 0.00 0.00 0.00 33 1009.4
20260504004516 71 54 0.9 1.7 0.00 0.00 0.00 33 1009.6
20260504003007 72 74 0.0 1.7 0.00 0.00 0.00 32 1009.7
20260504001507 73 62 0.0 1.7 0.00 0.00 0.00 31 1009.9
20260504000004 73 76 0.9 2.6 0.00 0.00 0.00 30 1010.1
20260503234503 74 346 1.7 3.5 0.00 0.00 0.00 30 1010.3
20260503233002 74 342 1.7 4.3 0.00 0.00 0.00 31 1010.3
20260503231502 74 327 1.7 4.3 0.00 0.00 0.00 30 1010.5
20260503230001 74 24 0.9 6.1 0.00 0.00 0.00 30 1010.5
20260503224604 75 36 3.5 8.7 0.00 0.00 0.00 29 1010.2
20260503224501 75 69 1.7 5.2 0.00 0.00 0.00 29 1010.3
20260503223109 74 36 2.6 5.2 0.00 0.00 0.00 29 1010.5
20260503221601 74 17 0.9 5.2 0.00 0.00 0.00 29 1010.6
20260503220057 74 331 2.6 7.8 0.00 0.00 0.00 28 1010.8
20260503214555 74 84 1.7 10.4 0.00 0.00 0.00 29 1010.8
20260503213102 74 19 1.7 5.2 0.00 0.00 0.00 29 1010.9
20260503211610 74 28 3.5 7.0 0.00 0.00 0.00 28 1011.1
20260503210050 74 26 4.3 9.6 0.00 0.00 0.00 28 1011.4
20260503204548 74 5 1.7 7.8 0.00 0.00 0.00 27 1011.7
20260503203049 75 38 3.5 8.7 0.00 0.00 0.00 28 1012.0
20260503201544 74 36 1.7 7.8 0.00 0.00 0.00 27 1012.0
20260503200054 74 348 3.5 8.7 0.00 0.00 0.00 29 1012.2
20260503194538 74 300 1.7 9.6 0.00 0.00 0.00 29 1012.4
20260503193040 73 325 2.6 7.8 0.00 0.00 0.00 29 1012.6
20260503191542 73 355 5.2 10.4 0.00 0.00 0.00 31 1012.7
20260503190035 72 304 2.6 7.0 0.00 0.00 0.00 32 1012.8
20260503184542 72 14 4.3 11.3 0.00 0.00 0.00 31 1013.1
20260503183040 72 39 5.2 12.2 0.00 0.00 0.00 31 1013.0
20260503181543 72 82 4.3 13.0 0.00 0.00 0.00 32 1013.1
20260503180047 72 40 4.3 8.7 0.00 0.00 0.00 33 1013.3